Regional Weather Roundup
Issued by NWS

Home | Current Version | Previous Version | Graphics & Text | Print | Product List | Glossary On
Versions: 1 2 3 4 5 6 7 8 9 10 11 12 13 14 15 16 17 18 19 20 21 22 23 24 25 26 27 28 29 30 31 32 33 34 35 36 37 38 39 40 41 42 43 44 45 46 47 48 49 50
000
ASUS45 KTFX 222204
RWRMT
MONTANA HOURLY WEATHER ROUNDUP
NATIONAL WEATHER SERVICE GREAT FALLS MT
404 PM MDT MON SEP 22 2014

NOTE: "FAIR" INDICATES FEW OR NO CLOUDS BELOW 12000 FEET WITH NO
SIGNIFICANT WEATHER AND/OR OBSTRUCTIONS TO VISIBILITY.

* THESE STATIONS ARE NOT UNDER NWS QUALITY CONTROL. THEY DO NOT
   REPORT WEATHER SUCH AS PRECIPITATION OR FOG.

MTZ001>007-043-222300-
WEST OF THE DIVIDE
CITY           SKY/WX    TMP DP  RH WIND       PRES   REMARKS
KALISPELL      SUNNY     79  45  30 S7        29.91F
MISSOULA       PTCLDY    84  43  24 CALM      29.91F
BUTTE          CLOUDY    66  46  49 N5        30.09F
MULLAN PASS    PTCLDY    70  39  32 VRB6      30.13S
* ESSEX        N/A       79  43  28 NW2        N/A
* LINCOLN      N/A       74  42  32 SW3G9      N/A
* POLSON       N/A       84  46  26 S3G9       N/A
* RONAN APT    SUNNY     82  45  27 SW7        N/A
* SEELEY LAKE  N/A       82  38  21 SW7G14     N/A
* THOMP F APT  PTCLDY    55  52  90 NE1        N/A
$$

MTZ008-052>055-222300-
SOUTHWEST MONTANA
CITY           SKY/WX    TMP DP  RH WIND       PRES   REMARKS
BOZEMAN        CLOUDY    64  52  65 CALM      30.05F
DILLON         CLOUDY    66  52  61 CALM      30.09F
W YELLOWSTONE  PTSUNNY   57  48  72 S13       30.19S
* THREE FORKS  CLOUDY    66  66 100 N/A        N/A
* BOULDER HILL N/A       67  46  47 SW14G22    N/A
* MONIDA PASS  N/A       56  51  83 SE9        N/A
* RAYNOLDS PAS N/A       57  47  69 S2         N/A
* WHITEHALL    N/A       70  50  49 SW14G24    N/A
* WISE RIVER   N/A       64  45  50 E4         N/A
$$

MTZ009>010-012-014-046-048-049-054-222300-
EAST SLOPES AND CENTRAL MONTANA
CITY           SKY/WX    TMP DP  RH WIND       PRES   REMARKS
CUT BANK       PTSUNNY   82  39  22 S7        29.88S
GREAT FALLS    PTCLDY    82  46  28 W10       29.88F
HELENA         CLOUDY    79  48  34 E7        29.95F
MALMSTROM AFB  PTCLDY    82  46  28 VRB6G15   29.88F
* CONRAD       PTCLDY    88  46  23 N/A        N/A
* EAST GLACIER N/A       78  39  25 NW10G20    N/A
* MONARCH      N/A       71  43  37 SW12       N/A
* PENDROY      N/A       83  44  25 NW12       N/A
* ROGERS PASS  N/A       69  41  36 E6G12      N/A
* SAINT MARY   N/A       79  37  22 SW8G20     N/A
* SWEET GRASS  N/A       84  33  16 NW12G17    N/A
$$

MTZ011-013-016-021-035-040-045-047-050-051-222300-
NORTH CENTRAL MONTANA
CITY           SKY/WX    TMP DP  RH WIND       PRES   REMARKS
HAVRE          SUNNY     82  46  28 S6        29.82F
LEWISTOWN      PTSUNNY   79  50  36 N6        29.93F
* CHESTER      N/A       86  38  18 NE3        N/A
* DENTON       N/A       81  46  29 N6         N/A
* GEYSER       N/A       79  44  29 VRB4G10    N/A
* JUDITH GAP   N/A       78  51  39 W14G23     N/A
* LOMA         N/A       83  49  31 SE3        N/A
$$

MTZ017>020-022>027-061-062-222300-
NORTHEAST MONTANA
CITY           SKY/WX    TMP DP  RH WIND       PRES   REMARKS
GLASGOW        SUNNY     81  48  32 SE8       29.84F
GLENDIVE       PTCLDY    79  48  34 S10       29.89S
SIDNEY         SUNNY     84  50  31 S14       29.87F
WOLF POINT     SUNNY     86  48  27 S10       29.84F
* BEAVER HILL  N/A       75  49  40 SE12G17    N/A
* CIRCLE       N/A       83  53  36 S8         N/A
* LINDSAY DVD  N/A       81  45  28 SE14G19    N/A
* NAVAJO       N/A       82  46  28 S12G17     N/A
* SACO         N/A       81  49  33 SE10       N/A
$$

MTZ028>042-056>058-222300-
SOUTHCENTRAL AND SOUTHEAST MONTANA
CITY           SKY/WX    TMP DP  RH WIND       PRES   REMARKS
BAKER          PTSUNNY   79  50  36 SE15G20   29.91F
LIVINGSTON     CLOUDY    73  48  41 W16       30.02F
MILES CITY     PTSUNNY   81  48  32 SE3       29.85F
* LAUREL APT   PTCLDY    82  46  28 SW9        N/A
* ROUNDUP APT  PTSUNNY   79  50  36 N/A        N/A
* ALZADA       N/A       79  47  32 E9         N/A
* HYSHAM       N/A       79  48  34 W8         N/A
* LAME DEER    N/A       75  48  39 W11G16     N/A
* REED POINT   N/A       76  46  35 W20G27     N/A
* ROSCOE HILL  N/A       74  41  31 VRB8       N/A
$$

REGIONAL REPORTS...DAKOTAS
CITY           SKY/WX    TMP DP  RH WIND       PRES   REMARKS
WILLISTON      SUNNY     82  48  31 SE15      29.88F
DICKINSON      PTCLDY    72  48  43 SE13      29.92S
BEACH          N/A       73  48  41 SE12      29.92F
CROSBY         SUNNY     82  39  22 S12       29.90F
TIOGA          SUNNY     77  46  33 SE18G26   29.95F
WATFORD CITY   SUNNY     82  46  28 SE13G20   29.88F
BISMARCK       SUNNY     82  48  31 SE15      29.96F
GRAND FORKS    SUNNY     77  46  33 S10       30.02F
FARGO          SUNNY     77  46  33 S12       30.06F
BUFFALO SD     PTSUNNY   81  48  32 SE13G20   29.85F
RAPID CITY     CLOUDY    75  48  39 S21G28    29.93F
$$

REGIONAL REPORTS...WYOMING/IDAHO/WASHINGTON
CITY           SKY/WX    TMP DP  RH WIND       PRES   REMARKS
GILLETTE       CLOUDY    79  45  30 SW17      29.93S
SHERIDAN       CLOUDY    70  54  57 NW15      29.95S
CODY           PTSUNNY   73  46  38 W17G25    30.01S
YELLOWSTONE LA PTSUNNY   55  46  72 CALM      30.25F
SALMON         PTSUNNY   73  52  48 S12       30.00F
MULLAN PASS    PTCLDY    70  39  32 VRB6      30.13S
SAND POINT     PTCLDY    81  46  29 W8        29.92F
SPOKANE        PTSUNNY   82  45  27 SW9G16    29.91F

$$




USA.gov is the U.S. government's official web portal to all federal, state and local government web resources and services.